owner,sensor,date,latitude,longitude,vertical_datum,wind_speed,wind_to_direction,wind_speed_of_gust,qcFlag 
LUMCON,ioos:station:LUMCON:101:1,2004-04-01T07:00:00Z,29.2533,-90.6633,1.0,3.6,40.0,99.0,'11111222,11111222,11144222' 
LUMCON,ioos:station:LUMCON:101:1,2004-04-01T14:00:00Z,29.2533,-90.6633,1.0,3.6,70.0,99.0,'11111222,11111222,11144222' 
LUMCON,ioos:station:LUMCON:101:1,2004-04-01T15:00:00Z,29.2533,-90.6633,1.0,3.1,70.0,99.0,'11111222,11111222,11144222' 
LUMCON,ioos:station:LUMCON:101:1,2004-04-01T16:00:00Z,29.2533,-90.6633,1.0,3.1,80.0,99.0,'11111222,11111222,11144222' 
LUMCON,ioos:station:LUMCON:101:1,2004-04-01T17:00:00Z,29.2533,-90.6633,1.0,3.1,90.0,99.0,'11111222,11111222,11144222' 
LUMCON,ioos:station:LUMCON:101:1,2004-04-01T18:00:00Z,29.2533,-90.6633,1.0,2.6,90.0,99.0,'11111222,11111222,11144222' 
LUMCON,ioos:station:LUMCON:101:1,2004-04-01T19:00:00Z,29.2533,-90.6633,1.0,3.6,120.0,99.0,'11111222,11111222,11144222' 
LUMCON,ioos:station:LUMCON:101:1,2004-04-01T20:00:00Z,29.2533,-90.6633,1.0,3.6,140.0,99.0,'11111222,11111222,11144222' 
LUMCON,ioos:station:LUMCON:101:1,2004-04-01T21:00:00Z,29.2533,-90.6633,1.0,3.1,130.0,99.0,'11111222,11111222,11144222' 
LUMCON,ioos:station:LUMCON:101:1,2004-04-01T22:00:00Z,29.2533,-90.6633,1.0,3.1,150.0,99.0,'11111222,11111222,11144222' 
LUMCON,ioos:station:LUMCON:101:1,2004-04-01T23:00:00Z,29.2533,-90.6633,1.0,4.1,160.0,99.0,'11111222,11111222,11144222' 
LUMCON,ioos:station:LUMCON:101:1,2004-04-02T00:00:00Z,29.2533,-90.6633,1.0,2.6,170.0,99.0,'11111222,11111222,11144222' 
LUMCON,ioos:station:LUMCON:101:1,2004-04-02T01:00:00Z,29.2533,-90.6633,1.0,2.6,170.0,99.0,'11111222,11111222,11144222' 
LUMCON,ioos:station:LUMCON:101:1,2004-04-02T02:00:00Z,29.2533,-90.6633,1.0,3.6,180.0,99.0,'11111222,11111222,11144222' 
LUMCON,ioos:station:LUMCON:101:1,2004-04-02T03:00:00Z,29.2533,-90.6633,1.0,3.1,180.0,99.0,'11111222,11111222,11144222' 
LUMCON,ioos:station:LUMCON:101:1,2004-04-02T04:00:00Z,29.2533,-90.6633,1.0,2.6,170.0,99.0,'11111222,11111222,11144222' 
LUMCON,ioos:station:LUMCON:101:1,2004-04-02T05:00:00Z,29.2533,-90.6633,1.0,2.6,180.0,99.0,'11111222,11111222,11144222' 
LUMCON,ioos:station:LUMCON:101:1,2004-04-02T06:00:00Z,29.2533,-90.6633,1.0,3.1,190.0,99.0,'11111222,11111222,11144222' 
LUMCON,ioos:station:LUMCON:101:1,2004-04-02T07:00:00Z,29.2533,-90.6633,1.0,2.1,190.0,99.0,'11111222,11111222,11144222' 
LUMCON,ioos:station:LUMCON:101:1,2004-04-02T08:00:00Z,29.2533,-90.6633,1.0,2.1,210.0,99.0,'11111222,11111222,11144222' 
LUMCON,ioos:station:LUMCON:101:1,2004-04-02T09:00:00Z,29.2533,-90.6633,1.0,1.5,210.0,99.0,'11111222,11111222,11144222' 
LUMCON,ioos:station:LUMCON:101:1,2004-04-02T10:00:00Z,29.2533,-90.6633,1.0,0.0,270.0,99.0,'11111222,11111222,11144222' 
LUMCON,ioos:station:LUMCON:101:1,2004-04-02T11:00:00Z,29.2533,-90.6633,1.0,0.0,290.0,99.0,'11111222,11111222,11144222' 
LUMCON,ioos:station:LUMCON:101:1,2004-04-02T12:00:00Z,29.2533,-90.6633,1.0,2.1,30.0,99.0,'11111222,11111222,11144222' 
LUMCON,ioos:station:LUMCON:101:1,2004-04-02T13:00:00Z,29.2533,-90.6633,1.0,1.5,40.0,99.0,'11111222,11111222,11144222' 
LUMCON,ioos:station:LUMCON:101:1,2004-04-02T14:00:00Z,29.2533,-90.6633,1.0,2.6,20.0,99.0,'11111222,11111222,11144222' 
LUMCON,ioos:station:LUMCON:101:1,2004-04-02T15:00:00Z,29.2533,-90.6633,1.0,3.6,40.0,99.0,'11111222,11111222,11144222' 
LUMCON,ioos:station:LUMCON:101:1,2004-04-02T16:00:00Z,29.2533,-90.6633,1.0,3.1,20.0,99.0,'11111222,11111222,11144222' 
LUMCON,ioos:station:LUMCON:101:1,2004-04-02T17:00:00Z,29.2533,-90.6633,1.0,2.6,10.0,99.0,'11111222,11111222,11144222' 
LUMCON,ioos:station:LUMCON:101:1,2004-04-02T18:00:00Z,29.2533,-90.6633,1.0,3.1,40.0,99.0,'11111222,11111222,11144222' 
LUMCON,ioos:station:LUMCON:101:1,2004-04-02T19:00:00Z,29.2533,-90.6633,1.0,3.1,90.0,99.0,'11111222,11111222,11144222' 
LUMCON,ioos:station:LUMCON:101:1,2004-04-02T20:00:00Z,29.2533,-90.6633,1.0,3.6,130.0,99.0,'11111222,11111222,11144222' 
LUMCON,ioos:station:LUMCON:101:1,2004-04-02T22:00:00Z,29.2533,-90.6633,1.0,3.6,150.0,99.0,'11111222,11111222,11144222' 
LUMCON,ioos:station:LUMCON:101:1,2004-04-02T23:00:00Z,29.2533,-90.6633,1.0,3.1,180.0,99.0,'11111222,11111222,11144222' 
LUMCON,ioos:station:LUMCON:101:1,2004-04-03T00:00:00Z,29.2533,-90.6633,1.0,3.6,200.0,99.0,'11111222,11111222,11144222' 
LUMCON,ioos:station:LUMCON:101:1,2004-04-03T01:00:00Z,29.2533,-90.6633,1.0,2.1,220.0,99.0,'11111222,11111222,11144222' 
LUMCON,ioos:station:LUMCON:101:1,2004-04-03T02:00:00Z,29.2533,-90.6633,1.0,2.6,210.0,99.0,'11111222,11111222,11144222' 
LUMCON,ioos:station:LUMCON:101:1,2004-04-03T03:00:00Z,29.2533,-90.6633,1.0,1.5,210.0,99.0,'11111222,11111222,11144222' 
LUMCON,ioos:station:LUMCON:101:1,2004-04-03T04:00:00Z,29.2533,-90.6633,1.0,1.5,210.0,99.0,'11111222,11111222,11144222' 
LUMCON,ioos:station:LUMCON:101:1,2004-04-03T05:00:00Z,29.2533,-90.6633,1.0,2.6,210.0,99.0,'11111222,11111222,11144222' 
LUMCON,ioos:station:LUMCON:101:1,2004-04-03T06:00:00Z,29.2533,-90.6633,1.0,2.1,230.0,99.0,'11111222,11111222,11144222' 
LUMCON,ioos:station:LUMCON:101:1,2004-04-03T07:00:00Z,29.2533,-90.6633,1.0,1.5,250.0,99.0,'11111222,11111222,11144222' 
LUMCON,ioos:station:LUMCON:101:1,2004-04-03T08:00:00Z,29.2533,-90.6633,1.0,1.5,320.0,99.0,'11111222,11111222,11144222' 
LUMCON,ioos:station:LUMCON:101:1,2004-04-03T09:00:00Z,29.2533,-90.6633,1.0,2.6,10.0,99.0,'11111222,11111222,11144222' 
LUMCON,ioos:station:LUMCON:101:1,2004-04-03T10:00:00Z,29.2533,-90.6633,1.0,2.1,10.0,99.0,'11111222,11111222,11144222' 
LUMCON,ioos:station:LUMCON:101:1,2004-04-03T11:00:00Z,29.2533,-90.6633,1.0,4.6,30.0,99.0,'11111222,11111222,11144222' 
LUMCON,ioos:station:LUMCON:101:1,2004-04-03T12:00:00Z,29.2533,-90.6633,1.0,3.6,40.0,99.0,'11111222,11111222,11144222' 
LUMCON,ioos:station:LUMCON:101:1,2004-04-03T13:00:00Z,29.2533,-90.6633,1.0,4.1,40.0,99.0,'11111222,11111222,11144222' 
LUMCON,ioos:station:LUMCON:101:1,2004-04-03T14:00:00Z,29.2533,-90.6633,1.0,3.6,60.0,99.0,'11111222,11111222,11144222' 
LUMCON,ioos:station:LUMCON:101:1,2004-04-03T15:00:00Z,29.2533,-90.6633,1.0,4.6,60.0,99.0,'11111222,11111222,11144222' 
LUMCON,ioos:station:LUMCON:101:1,2004-04-03T16:00:00Z,29.2533,-90.6633,1.0,4.6,60.0,99.0,'11111222,11111222,11144222' 
LUMCON,ioos:station:LUMCON:101:1,2004-04-03T17:00:00Z,29.2533,-90.6633,1.0,3.6,60.0,99.0,'11111222,11111222,11144222' 
LUMCON,ioos:station:LUMCON:101:1,2004-04-03T18:00:00Z,29.2533,-90.6633,1.0,2.6,90.0,99.0,'11111222,11111222,11144222' 
LUMCON,ioos:station:LUMCON:101:1,2004-04-03T19:00:00Z,29.2533,-90.6633,1.0,2.6,90.0,99.0,'11111222,11111222,11144222' 
LUMCON,ioos:station:LUMCON:101:1,2004-04-03T20:00:00Z,29.2533,-90.6633,1.0,3.6,140.0,99.0,'11111222,11111222,11144222' 
LUMCON,ioos:station:LUMCON:101:1,2004-04-03T21:00:00Z,29.2533,-90.6633,1.0,3.6,150.0,99.0,'11111222,11111222,11144222' 
LUMCON,ioos:station:LUMCON:101:1,2004-04-03T22:00:00Z,29.2533,-90.6633,1.0,4.1,170.0,99.0,'11111222,11111222,11144222' 
LUMCON,ioos:station:LUMCON:101:1,2004-04-03T23:00:00Z,29.2533,-90.6633,1.0,6.2,190.0,99.0,'11111222,11111222,11144222' 
LUMCON,ioos:station:LUMCON:101:1,2004-04-04T00:00:00Z,29.2533,-90.6633,1.0,5.7,200.0,99.0,'11111222,11111222,11144222' 
LUMCON,ioos:station:LUMCON:101:1,2004-04-04T01:00:00Z,29.2533,-90.6633,1.0,4.1,220.0,99.0,'11111222,11111222,11144222' 
LUMCON,ioos:station:LUMCON:101:1,2004-04-04T02:00:00Z,29.2533,-90.6633,1.0,3.6,220.0,99.0,'11111222,11111222,11144222' 
LUMCON,ioos:station:LUMCON:101:1,2004-04-04T03:00:00Z,29.2533,-90.6633,1.0,2.6,230.0,99.0,'11111222,11111222,11144222' 
LUMCON,ioos:station:LUMCON:101:1,2004-04-04T04:00:00Z,29.2533,-90.6633,1.0,3.6,230.0,99.0,'11111222,11111222,11144222' 
LUMCON,ioos:station:LUMCON:101:1,2004-04-04T05:00:00Z,29.2533,-90.6633,1.0,2.6,230.0,99.0,'11111222,11111222,11144222' 
LUMCON,ioos:station:LUMCON:101:1,2004-04-04T06:00:00Z,29.2533,-90.6633,1.0,3.1,250.0,99.0,'11111222,11111222,11144222' 
LUMCON,ioos:station:LUMCON:101:1,2004-04-04T07:00:00Z,29.2533,-90.6633,1.0,1.5,270.0,99.0,'11111222,11111222,11144222' 
LUMCON,ioos:station:LUMCON:101:1,2004-04-04T08:00:00Z,29.2533,-90.6633,1.0,2.1,310.0,99.0,'11111222,11111222,11144222' 
LUMCON,ioos:station:LUMCON:101:1,2004-04-04T09:00:00Z,29.2533,-90.6633,1.0,2.6,340.0,99.0,'11111222,11111222,11144222' 
LUMCON,ioos:station:LUMCON:101:1,2004-04-04T10:00:00Z,29.2533,-90.6633,1.0,2.6,340.0,99.0,'11111222,11111222,11144222' 
LUMCON,ioos:station:LUMCON:101:1,2004-04-04T11:00:00Z,29.2533,-90.6633,1.0,2.6,0.0,99.0,'11111222,11111222,11144222' 
LUMCON,ioos:station:LUMCON:101:1,2004-04-04T12:00:00Z,29.2533,-90.6633,1.0,2.1,10.0,99.0,'11111222,11111222,11144222' 
LUMCON,ioos:station:LUMCON:101:1,2004-04-04T13:00:00Z,29.2533,-90.6633,1.0,1.0,20.0,99.0,'11111222,11111222,11144222' 
LUMCON,ioos:station:LUMCON:101:1,2004-04-04T14:00:00Z,29.2533,-90.6633,1.0,2.6,350.0,99.0,'11111222,11111222,11144222' 
LUMCON,ioos:station:LUMCON:101:1,2004-04-04T15:00:00Z,29.2533,-90.6633,1.0,2.6,10.0,99.0,'11111222,11111222,11144222' 
LUMCON,ioos:station:LUMCON:101:1,2004-04-04T16:00:00Z,29.2533,-90.6633,1.0,2.6,90.0,99.0,'11111222,11111222,11144222' 
LUMCON,ioos:station:LUMCON:101:1,2004-04-04T17:00:00Z,29.2533,-90.6633,1.0,2.6,110.0,99.0,'11111222,11111222,11144222' 
LUMCON,ioos:station:LUMCON:101:1,2004-04-04T18:00:00Z,29.2533,-90.6633,1.0,3.1,140.0,99.0,'11111222,11111222,11144222' 
LUMCON,ioos:station:LUMCON:101:1,2004-04-04T19:00:00Z,29.2533,-90.6633,1.0,4.1,140.0,99.0,'11111222,11111222,11144222' 
LUMCON,ioos:station:LUMCON:101:1,2004-04-04T20:00:00Z,29.2533,-90.6633,1.0,5.1,150.0,99.0,'11111222,11111222,11144222' 
LUMCON,ioos:station:LUMCON:101:1,2004-04-04T21:00:00Z,29.2533,-90.6633,1.0,5.7,180.0,99.0,'11111222,11111222,11144222' 
LUMCON,ioos:station:LUMCON:101:1,2004-04-04T22:00:00Z,29.2533,-90.6633,1.0,4.1,200.0,99.0,'11111222,11111222,11144222' 
LUMCON,ioos:station:LUMCON:101:1,2004-04-04T23:00:00Z,29.2533,-90.6633,1.0,1.0,270.0,99.0,'11111222,11111222,11144222' 
LUMCON,ioos:station:LUMCON:101:1,2004-04-05T00:00:00Z,29.2533,-90.6633,1.0,3.1,170.0,99.0,'11111222,11111222,11144222' 
LUMCON,ioos:station:LUMCON:101:1,2004-04-05T01:00:00Z,29.2533,-90.6633,1.0,3.1,210.0,99.0,'11111222,11111222,11144222' 
LUMCON,ioos:station:LUMCON:101:1,2004-04-05T02:00:00Z,29.2533,-90.6633,1.0,2.6,210.0,99.0,'11111222,11111222,11144222' 
LUMCON,ioos:station:LUMCON:101:1,2004-04-05T03:00:00Z,29.2533,-90.6633,1.0,2.1,210.0,99.0,'11111222,11111222,11144222' 
LUMCON,ioos:station:LUMCON:101:1,2004-04-05T04:00:00Z,29.2533,-90.6633,1.0,2.6,230.0,99.0,'11111222,11111222,11144222' 
LUMCON,ioos:station:LUMCON:101:1,2004-04-05T05:00:00Z,29.2533,-90.6633,1.0,2.6,240.0,99.0,'11111222,11111222,11144222' 
LUMCON,ioos:station:LUMCON:101:1,2004-04-05T06:00:00Z,29.2533,-90.6633,1.0,3.1,240.0,99.0,'11111222,11111222,11144222' 
LUMCON,ioos:station:LUMCON:101:1,2004-04-05T07:00:00Z,29.2533,-90.6633,1.0,2.6,310.0,99.0,'11111222,11111222,11144222' 
LUMCON,ioos:station:LUMCON:101:1,2004-04-05T08:00:00Z,29.2533,-90.6633,1.0,3.6,20.0,99.0,'11111222,11111222,11144222' 
LUMCON,ioos:station:LUMCON:101:1,2004-04-05T09:00:00Z,29.2533,-90.6633,1.0,5.1,30.0,99.0,'11111222,11111222,11144222' 
LUMCON,ioos:station:LUMCON:101:1,2004-04-05T10:00:00Z,29.2533,-90.6633,1.0,5.7,40.0,99.0,'11111222,11111222,11144222' 
LUMCON,ioos:station:LUMCON:101:1,2004-04-05T11:00:00Z,29.2533,-90.6633,1.0,5.7,50.0,99.0,'11111222,11111222,11144222' 
LUMCON,ioos:station:LUMCON:101:1,2004-04-05T12:00:00Z,29.2533,-90.6633,1.0,6.2,50.0,99.0,'11111222,11111222,11144222' 
LUMCON,ioos:station:LUMCON:101:1,2004-04-05T13:00:00Z,29.2533,-90.6633,1.0,5.7,60.0,99.0,'11111222,11111222,11144222' 
LUMCON,ioos:station:LUMCON:101:1,2004-04-05T14:00:00Z,29.2533,-90.6633,1.0,5.7,50.0,99.0,'11111222,11111222,11144222' 
LUMCON,ioos:station:LUMCON:101:1,2004-04-05T15:00:00Z,29.2533,-90.6633,1.0,5.7,60.0,99.0,'11111222,11111222,11144222' 
LUMCON,ioos:station:LUMCON:101:1,2004-04-05T16:00:00Z,29.2533,-90.6633,1.0,5.7,70.0,99.0,'11111222,11111222,11144222' 
LUMCON,ioos:station:LUMCON:101:1,2004-04-05T17:00:00Z,29.2533,-90.6633,1.0,5.7,90.0,99.0,'11111222,11111222,11144222' 
LUMCON,ioos:station:LUMCON:101:1,2004-04-05T19:00:00Z,29.2533,-90.6633,1.0,4.6,70.0,99.0,'11111222,11111222,11144222' 
LUMCON,ioos:station:LUMCON:101:1,2004-04-05T20:00:00Z,29.2533,-90.6633,1.0,4.1,70.0,99.0,'11111222,11111222,11144222' 
LUMCON,ioos:station:LUMCON:101:1,2004-04-05T21:00:00Z,29.2533,-90.6633,1.0,4.6,90.0,99.0,'11111222,11111222,11144222' 
LUMCON,ioos:station:LUMCON:101:1,2004-04-05T22:00:00Z,29.2533,-90.6633,1.0,4.6,90.0,99.0,'11111222,11111222,11144222' 
LUMCON,ioos:station:LUMCON:101:1,2004-04-05T23:00:00Z,29.2533,-90.6633,1.0,4.6,70.0,99.0,'11111222,11111222,11144222' 
LUMCON,ioos:station:LUMCON:101:1,2004-04-06T00:00:00Z,29.2533,-90.6633,1.0,4.6,80.0,99.0,'11111222,11111222,11144222' 
LUMCON,ioos:station:LUMCON:101:1,2004-04-06T01:00:00Z,29.2533,-90.6633,1.0,4.1,60.0,99.0,'11111222,11111222,11144222' 
LUMCON,ioos:station:LUMCON:101:1,2004-04-06T02:00:00Z,29.2533,-90.6633,1.0,3.6,80.0,99.0,'11111222,11111222,11144222' 
LUMCON,ioos:station:LUMCON:101:1,2004-04-06T03:00:00Z,29.2533,-90.6633,1.0,3.1,90.0,99.0,'11111222,11111222,11144222' 
LUMCON,ioos:station:LUMCON:101:1,2004-04-06T04:00:00Z,29.2533,-90.6633,1.0,5.7,110.0,99.0,'11111222,11111222,11144222' 
LUMCON,ioos:station:LUMCON:101:1,2004-04-06T05:00:00Z,29.2533,-90.6633,1.0,5.1,100.0,99.0,'11111222,11111222,11144222' 
LUMCON,ioos:station:LUMCON:101:1,2004-04-06T07:00:00Z,29.2533,-90.6633,1.0,4.1,100.0,99.0,'11111222,11111222,11144222' 
LUMCON,ioos:station:LUMCON:101:1,2004-04-06T08:00:00Z,29.2533,-90.6633,1.0,4.1,120.0,99.0,'11111222,11111222,11144222' 
LUMCON,ioos:station:LUMCON:101:1,2004-04-06T09:00:00Z,29.2533,-90.6633,1.0,2.6,100.0,99.0,'11111222,11111222,11144222' 
LUMCON,ioos:station:LUMCON:101:1,2004-04-06T10:00:00Z,29.2533,-90.6633,1.0,2.1,90.0,99.0,'11111222,11111222,11144222' 
LUMCON,ioos:station:LUMCON:101:1,2004-04-06T11:00:00Z,29.2533,-90.6633,1.0,3.1,60.0,99.0,'11111222,11111222,11144222' 
LUMCON,ioos:station:LUMCON:101:1,2004-04-06T12:00:00Z,29.2533,-90.6633,1.0,2.6,70.0,99.0,'11111222,11111222,11144222' 
LUMCON,ioos:station:LUMCON:101:1,2004-04-07T05:00:00Z,29.2533,-90.6633,1.0,5.1,70.0,99.0,'11111222,11111222,11144222' 
LUMCON,ioos:station:LUMCON:101:1,2004-04-07T08:00:00Z,29.2533,-90.6633,1.0,0.5,120.0,99.0,'11111222,11111222,11144222' 
LUMCON,ioos:station:LUMCON:101:1,2004-04-07T14:00:00Z,29.2533,-90.6633,1.0,3.6,190.0,99.0,'11111222,11111222,11144222' 
LUMCON,ioos:station:LUMCON:101:1,2004-04-07T19:00:00Z,29.2533,-90.6633,1.0,5.7,220.0,99.0,'11111222,11111222,11144222' 
LUMCON,ioos:station:LUMCON:101:1,2004-04-07T21:00:00Z,29.2533,-90.6633,1.0,5.1,270.0,99.0,'11111222,11111222,11144222' 
LUMCON,ioos:station:LUMCON:101:1,2004-04-07T22:00:00Z,29.2533,-90.6633,1.0,4.6,260.0,99.0,'11111222,11111222,11144222' 
LUMCON,ioos:station:LUMCON:101:1,2004-04-07T23:00:00Z,29.2533,-90.6633,1.0,5.1,270.0,99.0,'11111222,11111222,11144222' 
LUMCON,ioos:station:LUMCON:101:1,2004-04-08T00:00:00Z,29.2533,-90.6633,1.0,3.6,220.0,99.0,'11111222,11111222,11144222' 
LUMCON,ioos:station:LUMCON:101:1,2004-04-08T02:00:00Z,29.2533,-90.6633,1.0,4.6,220.0,99.0,'11111222,11111222,11144222' 
LUMCON,ioos:station:LUMCON:101:1,2004-04-08T04:00:00Z,29.2533,-90.6633,1.0,4.1,220.0,99.0,'11111222,11111222,11144222' 
LUMCON,ioos:station:LUMCON:101:1,2004-04-08T05:00:00Z,29.2533,-90.6633,1.0,4.1,210.0,99.0,'11111222,11111222,11144222' 
LUMCON,ioos:station:LUMCON:101:1,2004-04-08T07:00:00Z,29.2533,-90.6633,1.0,3.6,230.0,99.0,'11111222,11111222,11144222' 
LUMCON,ioos:station:LUMCON:101:1,2004-04-08T10:00:00Z,29.2533,-90.6633,1.0,4.1,230.0,99.0,'11111222,11111222,11144222' 
LUMCON,ioos:station:LUMCON:101:1,2004-04-08T16:00:00Z,29.2533,-90.6633,1.0,6.2,270.0,99.0,'11111222,11111222,11144222' 
LUMCON,ioos:station:LUMCON:101:1,2004-04-08T20:00:00Z,29.2533,-90.6633,1.0,4.6,270.0,99.0,'11111222,11111222,11144222' 
LUMCON,ioos:station:LUMCON:101:1,2004-04-09T00:00:00Z,29.2533,-90.6633,1.0,4.6,280.0,99.0,'11111222,11111222,11144222' 
LUMCON,ioos:station:LUMCON:101:1,2004-04-09T01:00:00Z,29.2533,-90.6633,1.0,3.6,300.0,99.0,'11111222,11111222,11144222' 
LUMCON,ioos:station:LUMCON:101:1,2004-04-09T05:00:00Z,29.2533,-90.6633,1.0,3.1,320.0,99.0,'11111222,11111222,11144222' 
LUMCON,ioos:station:LUMCON:101:1,2004-04-09T06:00:00Z,29.2533,-90.6633,1.0,2.1,340.0,99.0,'11111222,11111222,11144222' 
LUMCON,ioos:station:LUMCON:101:1,2004-04-09T17:00:00Z,29.2533,-90.6633,1.0,2.1,150.0,99.0,'11111222,11111222,11144222' 
LUMCON,ioos:station:LUMCON:101:1,2004-04-09T18:00:00Z,29.2533,-90.6633,1.0,2.6,150.0,99.0,'11111222,11111222,11144222' 
LUMCON,ioos:station:LUMCON:101:1,2004-04-09T23:00:00Z,29.2533,-90.6633,1.0,4.1,180.0,99.0,'11111222,11111222,11144222' 
LUMCON,ioos:station:LUMCON:101:1,2004-04-10T00:00:00Z,29.2533,-90.6633,1.0,3.6,200.0,99.0,'11111222,11111222,11144222' 
LUMCON,ioos:station:LUMCON:101:1,2004-04-10T01:00:00Z,29.2533,-90.6633,1.0,2.1,210.0,99.0,'11111222,11111222,11144222' 
LUMCON,ioos:station:LUMCON:101:1,2004-04-10T04:00:00Z,29.2533,-90.6633,1.0,1.5,120.0,99.0,'11111222,11111222,11144222' 
LUMCON,ioos:station:LUMCON:101:1,2004-04-10T07:00:00Z,29.2533,-90.6633,1.0,1.0,190.0,99.0,'11111222,11111222,11144222' 
LUMCON,ioos:station:LUMCON:101:1,2004-04-10T10:00:00Z,29.2533,-90.6633,1.0,1.0,160.0,99.0,'11111222,11111222,11144222' 
LUMCON,ioos:station:LUMCON:101:1,2004-04-10T12:00:00Z,29.2533,-90.6633,1.0,1.0,170.0,99.0,'11111222,11111222,11144222' 
LUMCON,ioos:station:LUMCON:101:1,2004-04-10T20:00:00Z,29.2533,-90.6633,1.0,3.1,130.0,99.0,'11111222,11111222,11144222' 
LUMCON,ioos:station:LUMCON:101:1,2004-04-10T23:00:00Z,29.2533,-90.6633,1.0,5.1,130.0,99.0,'11111222,11111222,11144222' 
LUMCON,ioos:station:LUMCON:101:1,2004-04-11T02:00:00Z,29.2533,-90.6633,1.0,4.6,120.0,99.0,'11111222,11111222,11144222' 
LUMCON,ioos:station:LUMCON:101:1,2004-04-11T03:00:00Z,29.2533,-90.6633,1.0,4.6,130.0,99.0,'11111222,11111222,11144222' 
LUMCON,ioos:station:LUMCON:101:1,2004-04-11T06:00:00Z,29.2533,-90.6633,1.0,4.6,150.0,99.0,'11111222,11111222,11144222' 
LUMCON,ioos:station:LUMCON:101:1,2004-04-11T09:00:00Z,29.2533,-90.6633,1.0,4.6,110.0,99.0,'11111222,11111222,11144222' 
LUMCON,ioos:station:LUMCON:101:1,2004-04-12T16:00:00Z,29.2533,-90.6633,1.0,9.3,300.0,99.0,'11111222,11111222,11144222' 
LUMCON,ioos:station:LUMCON:101:1,2004-04-12T17:00:00Z,29.2533,-90.6633,1.0,10.3,310.0,99.0,'11111222,11111222,11144222' 
LUMCON,ioos:station:LUMCON:101:1,2004-04-12T18:00:00Z,29.2533,-90.6633,1.0,8.2,320.0,99.0,'11111222,11111222,11144222' 
LUMCON,ioos:station:LUMCON:101:1,2004-04-12T22:00:00Z,29.2533,-90.6633,1.0,7.7,290.0,99.0,'11111222,11111222,11144222' 
LUMCON,ioos:station:LUMCON:101:1,2004-04-13T00:00:00Z,29.2533,-90.6633,1.0,7.2,280.0,99.0,'11111222,11111222,11144222' 
LUMCON,ioos:station:LUMCON:101:1,2004-04-13T02:00:00Z,29.2533,-90.6633,1.0,8.8,300.0,99.0,'11111222,11111222,11144222' 
LUMCON,ioos:station:LUMCON:101:1,2004-04-13T06:00:00Z,29.2533,-90.6633,1.0,8.2,280.0,99.0,'11111222,11111222,11144222' 
LUMCON,ioos:station:LUMCON:101:1,2004-04-13T07:00:00Z,29.2533,-90.6633,1.0,9.3,290.0,99.0,'11111222,11111222,11144222' 
LUMCON,ioos:station:LUMCON:101:1,2004-04-13T08:00:00Z,29.2533,-90.6633,1.0,9.8,290.0,99.0,'11111222,11111222,11144222' 
LUMCON,ioos:station:LUMCON:101:1,2004-04-13T10:00:00Z,29.2533,-90.6633,1.0,6.7,330.0,99.0,'11111222,11111222,11144222' 
LUMCON,ioos:station:LUMCON:101:1,2004-04-13T16:00:00Z,29.2533,-90.6633,1.0,7.2,310.0,99.0,'11111222,11111222,11144222' 
LUMCON,ioos:station:LUMCON:101:1,2004-04-13T17:00:00Z,29.2533,-90.6633,1.0,8.8,300.0,99.0,'11111222,11111222,11144222' 
LUMCON,ioos:station:LUMCON:101:1,2004-04-13T20:00:00Z,29.2533,-90.6633,1.0,8.2,340.0,99.0,'11111222,11111222,11144222' 
LUMCON,ioos:station:LUMCON:101:1,2004-04-13T21:00:00Z,29.2533,-90.6633,1.0,6.7,270.0,99.0,'11111222,11111222,11144222' 
LUMCON,ioos:station:LUMCON:101:1,2004-04-13T22:00:00Z,29.2533,-90.6633,1.0,7.7,290.0,99.0,'11111222,11111222,11144222' 
LUMCON,ioos:station:LUMCON:101:1,2004-04-14T01:00:00Z,29.2533,-90.6633,1.0,3.6,270.0,99.0,'11111222,11111222,11144222' 
LUMCON,ioos:station:LUMCON:101:1,2004-04-14T04:00:00Z,29.2533,-90.6633,1.0,4.1,320.0,99.0,'11111222,11111222,11144222' 
LUMCON,ioos:station:LUMCON:101:1,2004-04-14T05:00:00Z,29.2533,-90.6633,1.0,3.6,300.0,99.0,'11111222,11111222,11144222' 
LUMCON,ioos:station:LUMCON:101:1,2004-04-14T15:00:00Z,29.2533,-90.6633,1.0,4.6,340.0,99.0,'11111222,11111222,11144222' 
LUMCON,ioos:station:LUMCON:101:1,2004-04-14T16:00:00Z,29.2533,-90.6633,1.0,5.7,340.0,99.0,'11111222,11111222,11144222' 
LUMCON,ioos:station:LUMCON:101:1,2004-04-14T18:00:00Z,29.2533,-90.6633,1.0,4.6,320.0,99.0,'11111222,11111222,11144222' 
LUMCON,ioos:station:LUMCON:101:1,2004-04-15T00:00:00Z,29.2533,-90.6633,1.0,5.7,270.0,99.0,'11111222,11111222,11144222' 
LUMCON,ioos:station:LUMCON:101:1,2004-04-15T01:00:00Z,29.2533,-90.6633,1.0,3.6,270.0,99.0,'11111222,11111222,11144222' 
LUMCON,ioos:station:LUMCON:101:1,2004-04-15T05:00:00Z,29.2533,-90.6633,1.0,3.6,270.0,99.0,'11111222,11111222,11144222' 
LUMCON,ioos:station:LUMCON:101:1,2004-04-15T06:00:00Z,29.2533,-90.6633,1.0,3.1,270.0,99.0,'11111222,11111222,11144222' 
LUMCON,ioos:station:LUMCON:101:1,2004-04-15T08:00:00Z,29.2533,-90.6633,1.0,1.5,300.0,99.0,'11111222,11111222,11144222' 
LUMCON,ioos:station:LUMCON:101:1,2004-04-16T02:00:00Z,29.2533,-90.6633,1.0,2.6,190.0,99.0,'11111222,11111222,11144222' 
LUMCON,ioos:station:LUMCON:101:1,2004-04-16T03:00:00Z,29.2533,-90.6633,1.0,1.5,240.0,99.0,'11111222,11111222,11144222' 
LUMCON,ioos:station:LUMCON:101:1,2004-04-16T07:00:00Z,29.2533,-90.6633,1.0,1.5,240.0,99.0,'11111222,11111222,11144222' 
LUMCON,ioos:station:LUMCON:101:1,2004-04-16T09:00:00Z,29.2533,-90.6633,1.0,1.0,260.0,99.0,'11111222,11111222,11144222' 
LUMCON,ioos:station:LUMCON:101:1,2004-04-16T21:00:00Z,29.2533,-90.6633,1.0,4.1,130.0,99.0,'11111222,11111222,11144222' 
LUMCON,ioos:station:LUMCON:101:1,2004-04-17T00:00:00Z,29.2533,-90.6633,1.0,4.6,130.0,99.0,'11111222,11111222,11144222' 
LUMCON,ioos:station:LUMCON:101:1,2004-04-17T06:00:00Z,29.2533,-90.6633,1.0,4.1,150.0,99.0,'11111222,11111222,11144222' 
LUMCON,ioos:station:LUMCON:101:1,2004-04-17T09:00:00Z,29.2533,-90.6633,1.0,3.1,160.0,99.0,'11111222,11111222,11144222' 
LUMCON,ioos:station:LUMCON:101:1,2004-04-17T11:00:00Z,29.2533,-90.6633,1.0,2.1,170.0,99.0,'11111222,11111222,11144222' 
LUMCON,ioos:station:LUMCON:101:1,2004-04-17T16:00:00Z,29.2533,-90.6633,1.0,3.1,150.0,99.0,'11111222,11111222,11144222' 
LUMCON,ioos:station:LUMCON:101:1,2004-04-17T17:00:00Z,29.2533,-90.6633,1.0,3.1,140.0,99.0,'11111222,11111222,11144222' 
LUMCON,ioos:station:LUMCON:101:1,2004-04-18T08:00:00Z,29.2533,-90.6633,1.0,4.6,120.0,99.0,'11111222,11111222,11144222' 
LUMCON,ioos:station:LUMCON:101:1,2004-04-18T11:00:00Z,29.2533,-90.6633,1.0,3.6,110.0,99.0,'11111222,11111222,11144222' 
LUMCON,ioos:station:LUMCON:101:1,2004-04-18T12:00:00Z,29.2533,-90.6633,1.0,4.6,120.0,99.0,'11111222,11111222,11144222' 
LUMCON,ioos:station:LUMCON:101:1,2004-04-18T13:00:00Z,29.2533,-90.6633,1.0,4.6,130.0,99.0,'11111222,11111222,11144222' 
LUMCON,ioos:station:LUMCON:101:1,2004-04-18T14:00:00Z,29.2533,-90.6633,1.0,5.1,120.0,99.0,'11111222,11111222,11144222' 
LUMCON,ioos:station:LUMCON:101:1,2004-04-18T21:00:00Z,29.2533,-90.6633,1.0,6.2,120.0,99.0,'11111222,11111222,11144222' 
LUMCON,ioos:station:LUMCON:101:1,2004-04-18T23:00:00Z,29.2533,-90.6633,1.0,6.2,120.0,99.0,'11111222,11111222,11144222' 
LUMCON,ioos:station:LUMCON:101:1,2004-04-19T00:00:00Z,29.2533,-90.6633,1.0,5.1,120.0,99.0,'11111222,11111222,11144222' 
LUMCON,ioos:station:LUMCON:101:1,2004-04-19T06:00:00Z,29.2533,-90.6633,1.0,4.6,120.0,99.0,'11111222,11111222,11144222' 
LUMCON,ioos:station:LUMCON:101:1,2004-04-19T09:00:00Z,29.2533,-90.6633,1.0,4.1,130.0,99.0,'11111222,11111222,11144222' 
LUMCON,ioos:station:LUMCON:101:1,2004-04-19T14:00:00Z,29.2533,-90.6633,1.0,4.1,140.0,99.0,'11111222,11111222,11144222' 